Location: Unspecified
(0.0000°N, 0.0000°E)
Time: 15:28:30
(UTC+00:00)

STARLINK-36885 - Pass Details

Date: 04 March 2026
Orbit: 268 x 269 km, 53.2° (Epoch: 6 March)

Event Time Altitude Azimuth Distance (km) Brightness Sun altitude
Rises 19:02:12 0° 219° (SW) 1,846 6.1 -12.6°
Reaches altitude 10° 19:04:05 10° 223° (SW) 1,045 4.8 -13.0°
Maximum altitude 19:06:21 59° 303° (WNW) 305 1.6 -13.6°
Enters shadow 19:07:42 21° 19° (NNE) 664 2.8 -13.9°
